When you browse on this site, cookies collect data to enhance your experience and personalize the content and advertising you see.
Visit our Privacy Policy to learn more. By continuing to use the site, you agree to this use of cookies and data.
  • în România
  • Lista ţărilor
  • Pe 7 zile
  • Temperatura apei
  • Hartă satelitară
  • Meteo pe hartă
  • Widget-uri
  • user-avatar
    Intrare

    Meteo pe oră la Szekszard

    Astăzi, 20 Aprilie, Sâmbătă

    Timp Temperatura Precipitaţii Vânt Presiune Umiditate
    00:00 +12°C° 0 mm 2 m/s 763 mmHg 58%
    01:00 +10°C° 0 mm 2 m/s 763 mmHg 58%
    02:00 +9°C° 0 mm 2 m/s 763 mmHg 59%
    03:00 +9°C° 0 mm 2 m/s 763 mmHg 60%
    04:00 +8°C° 0 mm 2 m/s 763 mmHg 62%
    05:00 +9°C° 0 mm 2 m/s 763 mmHg 61%
    06:00 +10°C° 0 mm 3 m/s 763 mmHg 60%
    07:00 +11°C° 0 mm 3 m/s 763 mmHg 60%
    08:00 +12°C° 0 mm 3 m/s 763 mmHg 54%
    09:00 +14°C° 0 mm 4 m/s 763 mmHg 48%
    10:00 +17°C° 0 mm 4 m/s 763 mmHg 41%
    11:00 +18°C° 0 mm 4 m/s 763 mmHg 39%
    12:00 +19°C° 0 mm 4 m/s 763 mmHg 36%
    13:00 +19°C° 0 mm 4 m/s 763 mmHg 34%
    14:00 +19°C° 0 mm 3 m/s 762 mmHg 35%
    15:00 +19°C° 0 mm 3 m/s 762 mmHg 35%
    16:00 +19°C° 0 mm 2 m/s 762 mmHg 36%
    17:00 +17°C° 0 mm 2 m/s 761 mmHg 40%
    18:00 +15°C° 0 mm 1 m/s 761 mmHg 44%
    19:00 +14°C° 0 mm 1 m/s 761 mmHg 49%
    20:00 +13°C° 0 mm 1 m/s 761 mmHg 50%
    21:00 +12°C° 0 mm 1 m/s 761 mmHg 51%
    22:00 +12°C° 0 mm 2 m/s 761 mmHg 52%
    23:00 +12°C° 0 mm 2 m/s 761 mmHg 54%

    Mâine, 21 Aprilie, Duminică

    Timp Temperatura Precipitaţii Vânt Presiune Umiditate
    00:00 +10°C° 0 mm 2 m/s 761 mmHg 56%
    01:00 +10°C° 0 mm 2 m/s 761 mmHg 58%
    02:00 +9°C° 0 mm 2 m/s 760 mmHg 58%
    03:00 +9°C° 0 mm 2 m/s 760 mmHg 59%
    04:00 +9°C° 0 mm 2 m/s 760 mmHg 60%
    05:00 +10°C° 0 mm 2 m/s 759 mmHg 59%
    06:00 +11°C° 0 mm 3 m/s 759 mmHg 59%
    07:00 +12°C° 0 mm 3 m/s 759 mmHg 59%
    08:00 +14°C° 0 mm 3 m/s 759 mmHg 54%
    09:00 +17°C° 0 mm 3 m/s 759 mmHg 49%
    10:00 +19°C° 0 mm 3 m/s 759 mmHg 44%
    11:00 +20°C° 0 mm 3 m/s 758 mmHg 41%
    12:00 +21°C° 0 mm 3 m/s 758 mmHg 38%
    13:00 +21°C° 0 mm 3 m/s 757 mmHg 35%
    14:00 +21°C° 0 mm 3 m/s 757 mmHg 38%
    15:00 +21°C° 0 mm 2 m/s 756 mmHg 40%
    16:00 +20°C° 0 mm 2 m/s 756 mmHg 43%
    17:00 +20°C° 0 mm 1 m/s 756 mmHg 45%
    18:00 +18°C° 0 mm 1 m/s 755 mmHg 47%
    19:00 +16°C° 0 mm 1 m/s 755 mmHg 50%
    20:00 +15°C° 0 mm 1 m/s 755 mmHg 51%
    21:00 +15°C° 0 mm 1 m/s 755 mmHg 53%
    22:00 +14°C° 0 mm 1 m/s 755 mmHg 55%
    23:00 +13°C° 0 mm 1 m/s 755 mmHg 57%

    Poimâine, 22 Aprilie, Luni

    Timp Temperatura Precipitaţii Vânt Presiune Umiditate
    00:00 +12°C° 0 mm 2 m/s 755 mmHg 60%
    01:00 +12°C° 0 mm 2 m/s 755 mmHg 62%
    02:00 +11°C° 0 mm 1 m/s 754 mmHg 63%
    03:00 +11°C° 0 mm 1 m/s 754 mmHg 64%
    04:00 +11°C° 0 mm 1 m/s 754 mmHg 65%
    05:00 +12°C° 0 mm 1 m/s 754 mmHg 63%
    06:00 +13°C° 0 mm 1 m/s 754 mmHg 62%
    07:00 +14°C° 0 mm 1 m/s 754 mmHg 60%
    08:00 +14°C° 0 mm 1 m/s 753 mmHg 62%
    09:00 +14°C° 0 mm 1 m/s 753 mmHg 64%
    10:00 +14°C° 0 mm 1 m/s 753 mmHg 66%
    11:00 +16°C° 0 mm 2 m/s 752 mmHg 60%
    12:00 +18°C° 0 mm 3 m/s 752 mmHg 53%
    13:00 +20°C° 0 mm 4 m/s 752 mmHg 47%
    14:00 +20°C° 0 mm 4 m/s 751 mmHg 45%
    15:00 +21°C° 0 mm 4 m/s 751 mmHg 43%
    16:00 +21°C° 0 mm 4 m/s 750 mmHg 42%
    17:00 +19°C° 0 mm 4 m/s 750 mmHg 49%
    18:00 +17°C° 0 mm 4 m/s 750 mmHg 56%
    19:00 +14°C° 0 mm 4 m/s 749 mmHg 64%
    20:00 +14°C° 0 mm 5 m/s 750 mmHg 64%
    21:00 +13°C° 0 mm 6 m/s 750 mmHg 64%
    22:00 +12°C° 0 mm 7 m/s 750 mmHg 64%
    23:00 +12°C° 0 mm 7 m/s 750 mmHg 64%

    23 Aprilie, Marţi

    Timp Temperatura Precipitaţii Vânt Presiune Umiditate
    00:00 +12°C° 0 mm 7 m/s 750 mmHg 64%
    01:00 +12°C° 0 mm 7 m/s 750 mmHg 65%
    02:00 +11°C° 0.6 mm 7 m/s 750 mmHg 73%
    03:00 +10°C° 0.6 mm 8 m/s 749 mmHg 80%
    04:00 +9°C° 0.6 mm 8 m/s 749 mmHg 88%
    05:00 +8°C° 1.2 mm 9 m/s 749 mmHg 87%
    06:00 +8°C° 1.2 mm 9 m/s 749 mmHg 86%
    07:00 +8°C° 1.2 mm 10 m/s 749 mmHg 85%
    08:00 +10°C° 0.1 mm 9 m/s 749 mmHg 82%
    09:00 +11°C° 0.1 mm 9 m/s 749 mmHg 79%
    10:00 +12°C° 0.1 mm 9 m/s 749 mmHg 76%
    11:00 +13°C° 0.3 mm 9 m/s 749 mmHg 76%
    12:00 +15°C° 0.3 mm 9 m/s 749 mmHg 76%
    13:00 +16°C° 0.3 mm 9 m/s 749 mmHg 76%
    14:00 +17°C° 0.2 mm 8 m/s 749 mmHg 73%
    15:00 +17°C° 0.2 mm 8 m/s 749 mmHg 70%
    16:00 +18°C° 0.2 mm 7 m/s 749 mmHg 67%
    17:00 +17°C° 0.9 mm 7 m/s 749 mmHg 71%
    18:00 +16°C° 0.9 mm 7 m/s 749 mmHg 74%
    19:00 +15°C° 0.9 mm 7 m/s 749 mmHg 77%
    20:00 +15°C° 0.2 mm 7 m/s 750 mmHg 78%
    21:00 +14°C° 0.2 mm 7 m/s 751 mmHg 78%
    22:00 +12°C° 0.2 mm 7 m/s 751 mmHg 79%
    23:00 +12°C° 0 mm 7 m/s 751 mmHg 79%

    24 Aprilie, Miercuri

    Timp Temperatura Precipitaţii Vânt Presiune Umiditate
    00:00 +13°C° 0 mm 6 m/s 752 mmHg 80%
    01:00 +13°C° 0 mm 6 m/s 752 mmHg 81%
    02:00 +11°C° 0 mm 6 m/s 752 mmHg 82%
    03:00 +11°C° 0 mm 6 m/s 752 mmHg 84%
    04:00 +10°C° 0 mm 5 m/s 752 mmHg 85%
    05:00 +12°C° 0 mm 5 m/s 753 mmHg 83%
    06:00 +13°C° 0 mm 6 m/s 753 mmHg 81%
    07:00 +14°C° 0 mm 6 m/s 754 mmHg 79%
    08:00 +16°C° 0 mm 6 m/s 754 mmHg 73%
    09:00 +19°C° 0 mm 6 m/s 754 mmHg 68%
    10:00 +21°C° 0 mm 6 m/s 754 mmHg 62%
    11:00 +22°C° 0.2 mm 6 m/s 754 mmHg 60%
    12:00 +23°C° 0.2 mm 5 m/s 754 mmHg 57%
    13:00 +25°C° 0.2 mm 5 m/s 754 mmHg 54%
    14:00 +23°C° 0.6 mm 5 m/s 754 mmHg 56%
    15:00 +23°C° 0.6 mm 5 m/s 754 mmHg 59%
    16:00 +23°C° 0.6 mm 5 m/s 754 mmHg 61%
    17:00 +21°C° 0.5 mm 4 m/s 754 mmHg 67%
    18:00 +20°C° 0.5 mm 4 m/s 754 mmHg 73%
    19:00 +18°C° 0.5 mm 3 m/s 754 mmHg 79%
    20:00 +17°C° 0.1 mm 4 m/s 754 mmHg 81%
    21:00 +15°C° 0.1 mm 4 m/s 755 mmHg 83%
    22:00 +14°C° 0.1 mm 4 m/s 755 mmHg 84%
    23:00 +13°C° 0 mm 4 m/s 755 mmHg 85%

    25 Aprilie, Joi

    Timp Temperatura Precipitaţii Vânt Presiune Umiditate
    00:00 +13°C° 0 mm 3 m/s 755 mmHg 86%
    01:00 +12°C° 0 mm 3 m/s 755 mmHg 86%
    02:00 +12°C° 0 mm 3 m/s 755 mmHg 88%
    03:00 +12°C° 0 mm 3 m/s 755 mmHg 89%
    04:00 +12°C° 0 mm 3 m/s 755 mmHg 90%
    05:00 +13°C° 0 mm 3 m/s 755 mmHg 88%
    06:00 +13°C° 0 mm 4 m/s 755 mmHg 85%
    07:00 +14°C° 0 mm 5 m/s 756 mmHg 83%
    08:00 +16°C° 0 mm 5 m/s 755 mmHg 78%
    09:00 +19°C° 0 mm 5 m/s 755 mmHg 73%
    10:00 +21°C° 0 mm 5 m/s 755 mmHg 68%
    11:00 +22°C° 0 mm 5 m/s 755 mmHg 65%
    12:00 +23°C° 0 mm 6 m/s 754 mmHg 62%
    13:00 +24°C° 0 mm 6 m/s 753 mmHg 60%
    14:00 +24°C° 0 mm 6 m/s 753 mmHg 60%
    15:00 +24°C° 0 mm 6 m/s 752 mmHg 60%
    16:00 +24°C° 0 mm 6 m/s 752 mmHg 60%
    17:00 +22°C° 0 mm 6 m/s 751 mmHg 63%
    18:00 +20°C° 0 mm 6 m/s 751 mmHg 67%
    19:00 +19°C° 0 mm 5 m/s 751 mmHg 71%
    20:00 +17°C° 0 mm 6 m/s 751 mmHg 73%
    21:00 +16°C° 0 mm 6 m/s 751 mmHg 74%
    22:00 +16°C° 0 mm 6 m/s 750 mmHg 76%
    23:00 +16°C° 0 mm 5 m/s 750 mmHg 77%
    Arată mai mult